Temp_Advection
nan nan nan nan nan nan nan nan nan nan nan nan nan nan nan nan nan nan nan nan nan nan
nan -0 -0 -0 -0 0 0 0 0 0 0 0 0 -0 -0 0 0 0 0 0 0 nan
nan -0 -0 -0 0 0 0 0 0 0 0 0 0 0 0 0 0 0 0 0 0 nan
nan -0 -0 -0 -0 -0 0 -0 -0 0 0 -0 -0 -0 -0 -0 -0 -0 0 0 0 nan
nan -0 -0 -0 -0 -0 0 0 -0 -0 0 0 0 0 -0 -0 -0 -0 -0 -0 -0 nan
nan 0 0 0 0 -0 -0 0 0 -0 0 0 0 0 0 0 0 0 -0 -0 0 nan
nan -0 0 0 0 0 0 0 0 0 -0 0 0 0 0 0 0 0 0 0 -0 nan
nan -0 -0 -0 0 0 0 0 0 0 0 0 0 0 0 0 0 0 0 0 0 nan
nan -0 -0 -0 -0 -0 0 -0 -0 -0 0 0 0 0 0 -0 0 0 0 0 0 nan
nan -0 -0 -0 -0 -0 -0 -0 -0 -0 -0 -0 -0 -0 0 -0 -0 0 0 0 0 nan
nan -0 -0 -0 -0 -0 -0 -0 -0 -0 -0 -0 -0 -0 -0 -0 -0 -0 0 0 0 nan
nan -0 -0 -0 -0 -0 -0 -0 -0 -0 -0 -0 -0 -0 -0 -0 -0 -0 0 0 0 nan
nan -0 -1 -1 -0 -0 -0 -0 -0 -0 -0 -0 -0 -0 -0 -0 -0 -0 -0 -0 0 nan
nan nan nan nan nan nan nan nan nan nan nan nan nan nan nan nan nan nan nan nan nan nan
Wind_Speed
17 17 15 15 14 15 15 15 15 15 14 14 13 13 13 12 11 11 11 11 11 12
16 15 15 15 15 14 14 14 14 15 15 14 14 14 14 13 13 12 12 13 15 15
17 16 15 14 14 15 14 14 14 14 14 14 14 15 15 15 14 14 13 14 14 13
15 15 15 14 14 14 14 14 15 15 15 15 14 15 16 16 16 16 16 15 16 15
17 15 13 13 13 14 14 14 15 15 16 16 16 16 17 17 17 17 17 16 17 17
16 15 14 14 14 14 14 14 14 14 14 15 15 16 17 18 18 18 19 18 18 18
17 16 15 14 14 14 15 15 15 15 15 16 16 16 17 18 19 19 19 19 19 19
17 17 16 16 15 15 15 15 16 16 16 17 18 17 18 19 20 21 21 20 20 20
18 18 17 16 16 16 16 17 17 16 17 17 17 18 19 20 21 21 22 22 21 21
19 19 19 18 17 17 16 17 17 17 17 17 17 17 18 19 22 23 24 23 23 23
18 19 19 19 18 18 17 16 16 16 16 17 17 17 17 17 19 21 22 23 23 24
19 19 20 20 20 20 20 19 17 16 17 17 17 18 18 20 21 21 21 21 22 23
20 21 21 22 22 22 21 21 20 18 17 17 17 18 19 20 21 22 23 24 24 23
21 22 23 23 23 23 23 23 23 22 20 19 18 17 19 20 22 23 26 27 29 28
Wind_Direction
313 306 307 307 306 307 306 308 310 313 314 315 316 316 314 314 309 299 296 287 276 273
315 308 303 303 305 304 303 305 308 311 312 312 314 314 313 312 308 303 297 292 288 283
316 312 310 303 301 301 301 303 306 308 309 307 306 307 307 307 305 301 296 292 293 289
330 317 310 305 306 302 299 298 302 304 305 304 304 304 305 306 305 303 301 297 292 289
344 333 322 311 307 307 303 300 299 299 303 303 303 303 304 303 301 299 297 296 293 294
343 341 336 326 316 310 307 305 302 301 303 303 301 300 300 299 298 297 296 296 293 292
342 343 338 332 326 321 316 312 310 308 308 307 306 307 305 300 297 294 294 294 293 293
332 332 330 328 326 324 320 315 312 310 304 303 303 304 302 301 300 298 295 292 292 292
326 327 326 326 326 324 320 316 313 311 309 308 306 305 301 300 299 298 295 295 292 291
319 323 324 324 324 322 320 319 319 319 315 313 315 310 306 303 299 301 301 300 298 294
319 321 322 323 324 324 324 325 324 325 325 324 325 319 314 308 305 303 302 302 301 297
315 318 318 319 320 320 318 318 318 321 320 320 322 319 318 315 312 308 305 302 300 298
313 313 314 315 315 315 312 310 311 312 314 316 319 320 320 318 315 313 310 308 304 302
313 312 312 312 312 309 305 303 305 307 310 313 314 318 318 319 318 318 317 317 315 312
Height
1492 1490 1488 1486 1485 1484 1482 1481 1480 1478 1476 1474 1472 1470 1469 1467 1466 1465 1464 1462 1462 1461
1489 1486 1485 1483 1482 1481 1479 1478 1476 1475 1473 1471 1470 1468 1466 1465 1464 1462 1461 1460 1459 1458
1485 1483 1481 1480 1479 1478 1476 1475 1473 1471 1470 1468 1467 1465 1464 1462 1461 1459 1458 1457 1456 1455
1482 1479 1478 1476 1475 1474 1472 1471 1469 1468 1467 1466 1464 1462 1460 1459 1458 1456 1455 1453 1452 1451
1480 1478 1475 1473 1472 1470 1469 1467 1466 1464 1463 1461 1460 1459 1457 1455 1454 1452 1450 1449 1447 1446
1480 1477 1474 1472 1470 1468 1466 1464 1462 1460 1458 1456 1455 1454 1452 1450 1449 1448 1446 1445 1443 1442
1478 1475 1473 1470 1468 1466 1464 1462 1460 1457 1455 1453 1451 1449 1447 1445 1444 1442 1441 1440 1438 1437
1477 1474 1472 1469 1466 1463 1461 1458 1457 1455 1452 1450 1447 1445 1442 1440 1438 1437 1435 1434 1433 1432
1474 1472 1469 1466 1464 1461 1458 1456 1453 1451 1448 1446 1444 1441 1438 1435 1432 1431 1430 1429 1428 1427
1470 1468 1466 1463 1460 1457 1454 1452 1450 1447 1444 1441 1438 1436 1434 1431 1428 1425 1423 1422 1420 1419
1466 1464 1462 1460 1457 1454 1451 1448 1445 1443 1440 1438 1435 1431 1428 1425 1423 1420 1418 1415 1413 1411
1461 1459 1457 1455 1453 1451 1448 1445 1441 1438 1435 1432 1430 1427 1423 1421 1419 1416 1413 1410 1408 1405
1457 1455 1452 1451 1448 1446 1443 1440 1437 1434 1431 1428 1424 1422 1420 1415 1412 1409 1407 1405 1401 1399
1451 1449 1447 1444 1443 1440 1437 1434 1432 1428 1426 1423 1420 1417 1413 1410 1407 1403 1399 1396 1394 1391